This is the latest recevied weather packets stored in our database for station/object N8AMF. If no packets are shown the sender has not sent any weather packets the latest 1 day(s).
| Time | Temp. | Humidity | Pressure | Rain* | Wind** | Luminosity | Snow |
|---|---|---|---|---|---|---|---|
| 1778069369 | 7.22° C | 99% | 1008.5 hPa | 0 mm | - | 44 W/m² | - |
| 1778068160 | 7.78° C | 99% | 1009 hPa | 0 mm | - | 27 W/m² | - |
| 1778067857 | 7.78° C | 99% | 1009.1 hPa | 0 mm | - | 20 W/m² | - |
| 1778067556 | 7.78° C | 99% | 1008.9 hPa | 0 mm | - | 27 W/m² | - |
| 1778065739 | 7.78° C | 99% | 1007.8 hPa | 0 mm | - | 13 W/m² | - |
| 1778065133 | 7.78° C | 99% | 1007.8 hPa | 0 mm | - | 7 W/m² | - |
| 1778064527 | 7.22° C | 99% | 1007.7 hPa | 0 mm | - | 4 W/m² | - |
| 1778062407 | 7.22° C | 99% | 1007.7 hPa | 0 mm | - | 0 W/m² | - |
| 1778061502 | 7.22° C | 99% | 1007.6 hPa | 0 mm | - | 0 W/m² | - |
| 1778061198 | 7.22° C | 99% | 1007.3 hPa | 0 mm | - | 0 W/m² | - |
| 1778060594 | 7.22° C | 99% | 1007.1 hPa | 0.51 mm | - | 0 W/m² | - |
| 1778059384 | 7.22° C | 99% | 1007.3 hPa | 0 mm | - | 0 W/m² | - |
| 1778059081 | 7.22° C | 99% | 1007.6 hPa | 0 mm | - | 0 W/m² | - |
| 1778058476 | 7.22° C | 99% | 1007.7 hPa | 0 mm | - | 0 W/m² | - |
| 1778058173 | 7.22° C | 99% | 1007.9 hPa | 0 mm | - | 0 W/m² | - |
| 1778057566 | 7.22° C | 99% | 1007.6 hPa | 0.51 mm | - | 0 W/m² | - |
| 1778056959 | 7.22° C | 99% | 1007.5 hPa | 0 mm | - | 0 W/m² | - |
| 1778056656 | 7.22° C | 99% | 1007.5 hPa | 0 mm | - | 0 W/m² | - |
| 1778056354 | 7.22° C | 99% | 1007.3 hPa | 0 mm | - | 0 W/m² | - |
| 1778054234 | 7.78° C | 99% | 1007.6 hPa | 3.05 mm | - | 0 W/m² | - |
| 1778053623 | 7.78° C | 99% | 1007.8 hPa | 0.51 mm | - | 0 W/m² | - |
| 1778053319 | 7.78° C | 99% | 1007.7 hPa | 1.27 mm | - | 0 W/m² | - |
| 1778053016 | 7.78° C | 99% | 1007.6 hPa | 1.78 mm | - | 0 W/m² | - |
| 1778052714 | 7.78° C | 99% | 1007.6 hPa | 1.27 mm | - | 0 W/m² | - |
| 1778052410 | 7.78° C | 99% | 1007.6 hPa | 1.27 mm | - | 0 W/m² | - |
* Rain latest hour (hover to see other rain measurements)
** Current wind speed in m/s (hover to see current wind gust speed)